Location: 81360 Arifat, France
(43.7204°N, 2.3408°E)
Time: 03:17:21
(UTC+01:00)

ACS3 Solar Sail - Pass Details

Date: 22 October 2025
Orbit: 909 x 993 km, 97.3° (Epoch: 13 November)

Event Time Altitude Azimuth Distance (km) Brightness Sun altitude
Rises 05:37:17 0° 11° (N) 3,555 5.0 -28.8°
Reaches altitude 10° 05:39:42 10° 11° (NNE) 2,614 4.3 -28.4°
Maximum altitude 05:45:33 88° 282° (WNW) 931 1.5 -27.4°
Enters shadow 05:46:49 58° 196° (SSW) 1,073 1.8 -27.1°
